Location: Waldport
(44.4270°N, 124.0680°W)
Time: 19:01:35
(UTC-07:00)

Meteor 1-26 Rocket - Visible Passes

Search period start: 14 September 2014 00:00
Search period end: 24 September 2014 00:00
Orbit: 822 x 914 km, 81.3° (Epoch: 14 September)

Date Brightness Start Highest point End Pass type
(mag) Time Alt. Az. Time Alt. Az. Time Alt. Az.
14 Sep 6.5 01:47:40 18° NE 01:47:40 18° NE 01:49:12 10° NNE visible
14 Sep 6.0 03:30:03 22° NNW 03:30:03 22° NNW 03:32:22 10° N visible
15 Sep 6.6 01:41:05 17° NNE 01:41:05 17° NNE 01:42:23 10° NNE visible
15 Sep 6.1 03:23:28 20° NNW 03:23:28 20° NNW 03:25:31 10° N visible
16 Sep 6.7 01:34:30 16° NNE 01:34:30 16° NNE 01:35:34 10° NNE visible
16 Sep 6.2 03:16:53 19° NNW 03:16:53 19° NNW 03:18:41 10° N visible
17 Sep 6.8 01:27:53 15° NNE 01:27:53 15° NNE 01:28:46 10° NNE visible
17 Sep 6.3 03:10:16 17° NNW 03:10:16 17° NNW 03:11:50 10° N visible
18 Sep 6.8 01:21:17 13° NNE 01:21:17 13° NNE 01:21:57 10° NNE visible
18 Sep 6.4 03:03:40 16° NNW 03:03:40 16° NNW 03:04:59 10° N visible
19 Sep 6.9 01:14:39 12° NNE 01:14:39 12° NNE 01:15:08 10° NNE visible
19 Sep 6.5 02:57:02 15° NNW 02:57:02 15° NNW 02:58:09 10° N visible
20 Sep 7.0 01:08:01 12° NNE 01:08:01 12° NNE 01:08:20 10° NNE visible
20 Sep 6.6 02:50:24 14° NNW 02:50:24 14° NNW 02:51:18 10° N visible
21 Sep 7.0 01:01:23 11° NNE 01:01:23 11° NNE 01:01:31 10° NNE visible
21 Sep 6.7 02:43:46 13° NNW 02:43:46 13° NNW 02:44:28 10° N visible
22 Sep 6.8 02:37:07 12° NNW 02:37:07 12° NNW 02:37:37 10° NNW visible
23 Sep 6.9 02:30:27 11° NNW 02:30:27 11° NNW 02:30:46 10° NNW visible
